Time,TemperatureF,DewpointF,PressureIn,WindDirection,WindDirectionDegrees,WindSpeedMPH,WindSpeedGustMPH,Humidity,HourlyPrecipIn,Conditions,Clouds,dailyrainin,SolarRadiationWatts/m^2,SoftwareType,DateUTC
2013-09-18 15:23:00,83.6,47.0,29.84,NNW,333,5.0,14.0,28,0.00,,,0.00,654,Wunderground v.1.15,2013-09-18 22:23:00,
2013-09-18 15:25:00,83.5,47.0,29.84,WNW,298,5.0,14.0,28,0.00,,,0.00,650,Wunderground v.1.15,2013-09-18 22:25:00,
2013-09-18 15:28:00,83.2,47.6,29.84,NW,311,5.0,14.0,29,0.00,,,0.00,643,Wunderground v.1.15,2013-09-18 22:28:00,
2013-09-18 15:34:00,83.4,46.9,29.83,NNW,341,3.0,4.0,28,0.00,,,0.00,633,Wunderground v.1.15,2013-09-18 22:34:00,
2013-09-18 15:39:00,83.6,47.0,29.83,WNW,300,3.0,14.0,28,0.00,,,0.00,621,Wunderground v.1.15,2013-09-18 22:39:00,
2013-09-18 15:44:00,83.8,47.2,29.83,NW,311,4.0,14.0,28,0.00,,,0.00,608,Wunderground v.1.15,2013-09-18 22:44:00,
2013-09-18 15:50:00,84.1,47.5,29.83,WNW,302,3.0,14.0,28,0.00,,,0.00,591,Wunderground v.1.15,2013-09-18 22:50:00,
2013-09-18 15:56:00,84.3,47.6,29.83,WNW,288,3.0,14.0,28,0.00,,,0.00,575,Wunderground v.1.15,2013-09-18 22:56:00,
2013-09-18 16:02:00,84.2,47.6,29.83,NNW,333,3.0,14.0,28,0.00,,,0.00,559,Wunderground v.1.15,2013-09-18 23:02:00,
2013-09-18 16:08:00,84.1,47.5,29.83,WNW,298,4.0,14.0,28,0.00,,,0.00,547,Wunderground v.1.15,2013-09-18 23:08:00,
2013-09-18 16:13:00,83.9,47.3,29.83,WNW,295,4.0,14.0,28,0.00,,,0.00,533,Wunderground v.1.15,2013-09-18 23:13:00,
2013-09-18 16:19:00,83.7,47.1,29.82,NNW,344,3.0,14.0,28,0.00,,,0.00,513,Wunderground v.1.15,2013-09-18 23:19:00,
2013-09-18 16:25:00,83.5,47.0,29.82,NW,311,3.0,14.0,28,0.00,,,0.00,499,Wunderground v.1.15,2013-09-18 23:25:00,
2013-09-18 16:30:00,83.3,46.8,29.82,West,262,3.0,3.0,28,0.00,,,0.00,482,Wunderground v.1.15,2013-09-18 23:30:00,
2013-09-18 16:36:00,83.4,46.9,29.82,West,277,2.0,14.0,28,0.00,,,0.00,468,Wunderground v.1.15,2013-09-18 23:36:00,
2013-09-18 16:42:00,83.2,46.7,29.82,NW,306,4.0,8.0,28,0.00,,,0.00,450,Wunderground v.1.15,2013-09-18 23:42:00,
2013-09-18 16:47:00,83.0,47.5,29.82,SW,227,4.0,14.0,29,0.00,,,0.00,432,Wunderground v.1.15,2013-09-18 23:47:00,
2013-09-18 16:53:00,83.2,46.7,29.81,West,264,2.0,14.0,28,0.00,,,0.00,415,Wunderground v.1.15,2013-09-18 23:53:00,
2013-09-18 16:58:00,83.3,47.7,29.81,WSW,249,2.0,14.0,29,0.00,,,0.00,401,Wunderground v.1.15,2013-09-18 23:58:00,
2013-09-18 17:03:00,83.5,47.9,29.81,SW,228,2.0,14.0,29,0.00,,,0.00,383,Wunderground v.1.15,2013-09-19 00:03:00,
2013-09-18 17:09:00,83.7,48.1,29.81,WSW,244,1.0,14.0,29,0.00,,,0.00,366,Wunderground v.1.15,2013-09-19 00:09:00,
2013-09-18 17:14:00,83.8,47.2,29.81,WSW,253,1.0,14.0,28,0.00,,,0.00,350,Wunderground v.1.15,2013-09-19 00:14:00,
2013-09-18 17:19:00,83.7,47.1,29.81,WSW,251,2.0,14.0,28,0.00,,,0.00,332,Wunderground v.1.15,2013-09-19 00:19:00,
2013-09-18 17:25:00,83.1,47.5,29.81,SW,225,4.0,14.0,29,0.00,,,0.00,311,Wunderground v.1.15,2013-09-19 00:25:00,
2013-09-18 17:31:00,82.6,47.1,29.81,West,263,3.0,14.0,29,0.00,,,0.00,295,Wunderground v.1.15,2013-09-19 00:31:00,
2013-09-18 17:36:00,82.3,47.8,29.81,West,269,2.0,14.0,30,0.00,,,0.00,278,Wunderground v.1.15,2013-09-19 00:36:00,
2013-09-18 17:42:00,82.1,47.6,29.81,SSW,210,2.0,14.0,30,0.00,,,0.00,251,Wunderground v.1.15,2013-09-19 00:42:00,
2013-09-18 17:47:00,81.8,47.3,29.82,WSW,255,2.0,14.0,30,0.00,,,0.00,230,Wunderground v.1.15,2013-09-19 00:47:00,
2013-09-18 17:53:00,81.6,47.2,29.82,WSW,254,1.0,14.0,30,0.00,,,0.00,209,Wunderground v.1.15,2013-09-19 00:53:00,
2013-09-18 17:58:00,81.4,46.1,29.82,West,271,1.0,14.0,29,0.00,,,0.00,188,Wunderground v.1.15,2013-09-19 00:58:00,
2013-09-18 18:04:00,81.1,45.8,29.82,SSW,205,2.0,14.0,29,0.00,,,0.00,160,Wunderground v.1.15,2013-09-19 01:04:00,
2013-09-18 18:10:00,80.8,46.5,29.82,SSW,211,1.0,14.0,30,0.00,,,0.00,139,Wunderground v.1.15,2013-09-19 01:10:00,
2013-09-18 18:15:00,80.8,45.6,29.82,SSW,211,1.0,14.0,29,0.00,,,0.00,120,Wunderground v.1.15,2013-09-19 01:15:00,
2013-09-18 18:20:00,80.7,45.5,29.82,SSW,211,0.0,14.0,29,0.00,,,0.00,98,Wunderground v.1.15,2013-09-19 01:20:00,
2013-09-18 18:26:00,80.5,46.2,29.82,SSW,211,0.0,14.0,30,0.00,,,0.00,81,Wunderground v.1.15,2013-09-19 01:26:00,
2013-09-18 18:31:00,80.4,46.1,29.82,SSW,211,0.0,14.0,30,0.00,,,0.00,65,Wunderground v.1.15,2013-09-19 01:31:00,
2013-09-18 18:37:00,80.0,45.8,29.82,SSW,211,0.0,14.0,30,0.00,,,0.00,42,Wunderground v.1.15,2013-09-19 01:37:00,
2013-09-18 18:43:00,79.6,46.3,29.82,SSW,200,0.0,14.0,31,0.00,,,0.00,21,Wunderground v.1.15,2013-09-19 01:43:00,
2013-09-18 18:50:00,78.7,46.4,29.82,SSW,200,0.0,14.0,32,0.00,,,0.00,18,Wunderground v.1.15,2013-09-19 01:50:00,
2013-09-18 18:56:00,78.0,46.6,29.82,SSW,200,0.0,14.0,33,0.00,,,0.00,14,Wunderground v.1.15,2013-09-19 01:56:00,
2013-09-18 19:01:00,77.6,47.0,29.82,SSW,200,0.0,14.0,34,0.00,,,0.00,11,Wunderground v.1.15,2013-09-19 02:01:00,
2013-09-18 19:07:00,77.0,46.5,29.82,SSW,200,0.0,14.0,34,0.00,,,0.00,7,Wunderground v.1.15,2013-09-19 02:07:00,
2013-09-18 19:12:00,76.4,47.5,29.82,SSW,200,0.0,14.0,36,0.00,,,0.00,5,Wunderground v.1.15,2013-09-19 02:12:00,
2013-09-18 19:18:00,75.7,46.8,29.82,SSW,200,0.0,14.0,36,0.00,,,0.00,0,Wunderground v.1.15,2013-09-19 02:18:00,
2013-09-18 19:23:00,75.0,47.0,29.82,SSW,200,0.0,14.0,37,0.00,,,0.00,0,Wunderground v.1.15,2013-09-19 02:23:00,
2013-09-18 19:29:00,74.2,47.0,29.82,SSW,200,0.0,14.0,38,0.00,,,0.00,0,Wunderground v.1.15,2013-09-19 02:29:00,
2013-09-18 19:34:00,73.4,46.9,29.82,SSW,200,0.0,14.0,39,0.00,,,0.00,0,Wunderground v.1.15,2013-09-19 02:34:00,
2013-09-18 19:39:00,73.0,47.2,29.83,SSW,200,0.0,14.0,40,0.00,,,0.00,0,Wunderground v.1.15,2013-09-19 02:39:00,
2013-09-18 19:45:00,72.6,46.9,29.82,SSW,200,0.0,14.0,40,0.00,,,0.00,0,Wunderground v.1.15,2013-09-19 02:45:00,
2013-09-18 19:51:00,72.0,47.6,29.82,SSW,200,0.0,14.0,42,0.00,,,0.00,0,Wunderground v.1.15,2013-09-19 02:51:00,
2013-09-18 19:56:00,71.4,47.7,29.83,SSW,200,0.0,14.0,43,0.00,,,0.00,0,Wunderground v.1.15,2013-09-19 02:56:00,
2013-09-18 20:02:00,70.8,47.8,29.83,SSW,200,0.0,14.0,44,0.00,,,0.00,0,Wunderground v.1.15,2013-09-19 03:02:00,
2013-09-18 20:08:00,70.1,47.2,29.83,SSW,200,0.0,14.0,44,0.00,,,0.00,0,Wunderground v.1.15,2013-09-19 03:08:00,
2013-09-18 20:14:00,69.3,47.0,29.83,SSW,200,0.0,14.0,45,0.00,,,0.00,0,Wunderground v.1.15,2013-09-19 03:14:00,
2013-09-18 20:20:00,68.5,47.5,29.83,SSW,200,0.0,14.0,47,0.00,,,0.00,0,Wunderground v.1.15,2013-09-19 03:20:00,
2013-09-18 20:25:00,67.8,46.8,29.84,SSW,200,0.0,14.0,47,0.00,,,0.00,0,Wunderground v.1.15,2013-09-19 03:25:00,
2013-09-18 20:31:00,67.3,46.9,29.84,SSW,200,0.0,14.0,48,0.00,,,0.00,0,Wunderground v.1.15,2013-09-19 03:31:00,
2013-09-18 20:37:00,66.8,47.0,29.84,SSW,200,0.0,14.0,49,0.00,,,0.00,0,Wunderground v.1.15,2013-09-19 03:37:00,
2013-09-18 20:42:00,66.6,46.8,29.84,SSW,200,0.0,14.0,49,0.00,,,0.00,0,Wunderground v.1.15,2013-09-19 03:42:00,
2013-09-18 20:48:00,66.1,47.4,29.84,SSW,200,0.0,14.0,51,0.00,,,0.00,0,Wunderground v.1.15,2013-09-19 03:48:00,
2013-09-18 20:53:00,65.6,47.5,29.84,SSW,200,0.0,14.0,52,0.00,,,0.00,0,Wunderground v.1.15,2013-09-19 03:53:00,
2013-09-18 20:59:00,65.0,46.9,29.84,SSW,200,0.0,14.0,52,0.00,,,0.00,0,Wunderground v.1.15,2013-09-19 03:59:00,
2013-09-18 21:02:00,64.8,46.8,29.85,SSW,200,0.0,14.0,52,0.00,,,0.00,0,Wunderground v.1.15,2013-09-19 04:02:00,
2013-09-18 21:03:00,64.7,46.7,29.84,SSW,200,0.0,14.0,52,0.00,,,0.00,0,Wunderground v.1.15,2013-09-19 04:03:00,
2013-09-18 21:04:00,64.6,47.1,29.85,SSW,200,0.0,14.0,53,0.00,,,0.00,0,Wunderground v.1.15,2013-09-19 04:04:00,
2013-09-18 21:09:00,64.3,47.3,29.84,SSW,200,0.0,14.0,54,0.00,,,0.00,0,Wunderground v.1.15,2013-09-19 04:09:00,
2013-09-18 21:10:00,64.1,47.1,29.84,SSW,200,0.0,14.0,54,0.00,,,0.00,0,Wunderground v.1.15,2013-09-19 04:10:00,
2013-09-18 21:13:00,63.9,47.4,29.85,SSW,200,0.0,14.0,55,0.00,,,0.00,0,Wunderground v.1.15,2013-09-19 04:13:00,
2013-09-18 21:18:00,63.2,46.3,29.85,SSW,200,0.0,14.0,54,0.00,,,0.00,0,Wunderground v.1.15,2013-09-19 04:18:00,
2013-09-18 21:23:00,62.7,46.3,29.84,SSW,200,0.0,14.0,55,0.00,,,0.00,0,Wunderground v.1.15,2013-09-19 04:23:00,
2013-09-18 21:28:00,62.4,46.5,29.84,SSW,200,0.0,14.0,56,0.00,,,0.00,0,Wunderground v.1.15,2013-09-19 04:28:00,
2013-09-18 21:34:00,62.1,46.7,29.84,SSW,200,0.0,14.0,57,0.00,,,0.00,0,Wunderground v.1.15,2013-09-19 04:34:00,
2013-09-18 21:40:00,61.8,46.9,29.85,SSW,200,0.0,14.0,58,0.00,,,0.00,0,Wunderground v.1.15,2013-09-19 04:40:00,
2013-09-18 21:45:00,61.5,46.6,29.85,SSW,200,0.0,14.0,58,0.00,,,0.00,0,Wunderground v.1.15,2013-09-19 04:45:00,
2013-09-18 21:50:00,61.2,46.3,29.85,SSW,200,0.0,14.0,58,0.00,,,0.00,0,Wunderground v.1.15,2013-09-19 04:50:00,
2013-09-18 21:56:00,60.8,46.4,29.84,SSW,200,0.0,14.0,59,0.00,,,0.00,0,Wunderground v.1.15,2013-09-19 04:56:00,
2013-09-18 22:01:00,60.5,46.5,29.84,SSW,200,0.0,14.0,60,0.00,,,0.00,0,Wunderground v.1.15,2013-09-19 05:01:00,
2013-09-18 22:06:00,60.2,46.7,29.84,SSW,200,0.0,14.0,61,0.00,,,0.00,0,Wunderground v.1.15,2013-09-19 05:06:00,
2013-09-18 22:12:00,59.8,46.3,29.84,SSW,200,0.0,14.0,61,0.00,,,0.00,0,Wunderground v.1.15,2013-09-19 05:12:00,
2013-09-18 22:18:00,59.4,46.4,29.84,SSW,200,0.0,14.0,62,0.00,,,0.00,0,Wunderground v.1.15,2013-09-19 05:18:00,
2013-09-18 22:23:00,59.2,46.2,29.84,SSW,200,0.0,14.0,62,0.00,,,0.00,0,Wunderground v.1.15,2013-09-19 05:23:00,
2013-09-18 22:29:00,58.9,46.3,29.84,SSW,200,0.0,14.0,63,0.00,,,0.00,0,Wunderground v.1.15,2013-09-19 05:29:00,
2013-09-18 22:35:00,58.6,46.0,29.84,SSW,200,0.0,14.0,63,0.00,,,0.00,0,Wunderground v.1.15,2013-09-19 05:35:00,
2013-09-18 22:40:00,58.3,45.8,29.84,SSW,200,0.0,14.0,63,0.00,,,0.00,0,Wunderground v.1.15,2013-09-19 05:40:00,
2013-09-18 22:46:00,58.0,45.5,29.85,SSW,200,0.0,14.0,63,0.00,,,0.00,0,Wunderground v.1.15,2013-09-19 05:46:00,
2013-09-18 22:51:00,57.8,45.7,29.85,SSW,200,0.0,14.0,64,0.00,,,0.00,0,Wunderground v.1.15,2013-09-19 05:51:00,
2013-09-18 22:57:00,57.6,45.5,29.85,SSW,200,0.0,14.0,64,0.00,,,0.00,0,Wunderground v.1.15,2013-09-19 05:57:00,
2013-09-18 23:03:00,57.4,45.7,29.85,SSW,200,0.0,14.0,65,0.00,,,0.00,0,Wunderground v.1.15,2013-09-19 06:03:00,
2013-09-18 23:09:00,57.1,45.4,29.85,SSW,200,0.0,14.0,65,0.00,,,0.00,0,Wunderground v.1.15,2013-09-19 06:09:00,
2013-09-18 23:15:00,56.9,45.7,29.85,SSW,200,0.0,14.0,66,0.00,,,0.00,0,Wunderground v.1.15,2013-09-19 06:15:00,
2013-09-18 23:20:00,56.8,46.0,29.85,SSW,200,0.0,14.0,67,0.00,,,0.00,0,Wunderground v.1.15,2013-09-19 06:20:00,
2013-09-18 23:26:00,56.5,45.3,29.85,SSW,200,0.0,14.0,66,0.00,,,0.00,0,Wunderground v.1.15,2013-09-19 06:26:00,
2013-09-18 23:32:00,56.3,45.5,29.85,SSW,200,0.0,14.0,67,0.00,,,0.00,0,Wunderground v.1.15,2013-09-19 06:32:00,
2013-09-18 23:37:00,56.0,45.2,29.85,SSW,200,0.0,14.0,67,0.00,,,0.00,0,Wunderground v.1.15,2013-09-19 06:37:00,
2013-09-18 23:43:00,55.8,45.0,29.85,SSW,200,0.0,14.0,67,0.00,,,0.00,0,Wunderground v.1.15,2013-09-19 06:43:00,
2013-09-18 23:48:00,55.6,45.2,29.85,SSW,200,0.0,14.0,68,0.00,,,0.00,0,Wunderground v.1.15,2013-09-19 06:48:00,
2013-09-18 23:54:00,55.4,45.0,29.85,SSW,200,0.0,14.0,68,0.00,,,0.00,0,Wunderground v.1.15,2013-09-19 06:54:00,
2013-09-18 23:59:00,55.3,45.3,29.85,SSW,200,0.0,14.0,69,0.00,,,0.00,0,Wunderground v.1.15,2013-09-19 06:59:00,